RH
38 14 8 8 10 10 15 18 16 21 22 21 19 19 21 26 35 51 29 28 32 36 43 54 90 91 92 88 84 82 82 81 81 81 82 84 84 82 80 77 72 71 70 70 72 73 77 79 80
9 6 8 8 10 12 14 13 17 19 19 16 16 17 18 28 31 34 32 27 29 32 35 54 91 90 89 92 91 91 85 84 82 81 79 80 82 79 78 77 76 75 73 70 71 75 80 81 79
16 7 8 8 8 10 15 12 19 19 18 18 19 16 22 29 26 28 27 27 28 32 38 62 88 87 87 87 87 88 89 89 88 84 81 78 76 76 78 80 78 73 72 73 74 79 83 84 84
8 6 8 9 13 12 14 17 17 19 20 18 14 23 30 24 26 26 26 24 28 28 38 75 84 84 83 79 82 85 86 87 88 88 86 85 83 83 81 80 78 78 76 78 78 79 78 79 82
7 6 8 10 14 14 15 15 16 17 17 17 15 20 33 32 28 27 25 20 23 22 31 41 82 82 78 77 79 82 83 85 86 86 85 83 82 82 81 78 79 81 83 82 82 84 80 82 83
7 7 9 13 15 16 16 16 15 14 15 14 15 20 33 30 29 30 25 22 20 25 28 36 74 80 80 80 82 84 84 84 86 88 87 86 85 85 85 86 85 84 84 83 85 86 87 87 84
8 9 11 13 16 16 15 12 12 12 13 14 12 19 29 28 30 28 24 20 20 24 26 29 36 61 81 83 85 87 86 84 84 85 86 86 86 85 84 83 82 82 82 83 83 83 83 80 78
6 7 10 11 13 12 9 10 10 10 15 12 13 18 31 30 29 25 23 22 23 25 27 29 31 31 38 51 82 84 86 85 83 82 82 83 85 80 77 81 81 80 80 80 80 80 81 80 79
5 7 8 8 8 8 6 7 6 8 12 12 12 16 18 26 27 27 26 25 27 28 33 32 29 34 35 31 53 78 85 84 86 79 81 75 45 44 54 80 78 77 77 77 77 77 76 76 79
6 7 7 6 6 6 5 5 6 9 10 10 15 16 22 27 28 30 27 28 29 32 31 33 40 39 36 25 35 37 34 36 40 41 45 37 48 48 46 64 78 76 75 74 75 76 74 76 34
6 7 6 6 5 4 5 5 5 6 9 10 12 15 22 27 29 28 25 23 25 28 28 30 46 45 41 36 29 27 28 32 36 44 47 44 46 47 43 42 44 49 67 41 55 48 40 41 42
7 6 5 5 6 6 6 6 6 6 7 7 8 14 20 25 27 26 25 21 22 24 26 32 44 50 45 32 28 29 28 33 33 39 44 46 41 45 45 38 38 39 33 39 39 38 42 47 45
7 7 6 6 6 7 8 8 8 7 7 7 10 14 19 23 23 22 20 20 21 24 25 29 41 52 43 44 34 36 38 34 40 37 40 41 42 46 41 41 37 35 33 34 36 36 36 39 39
9 10 10 9 10 10 11 10 10 8 7 7 10 13 15 17 18 20 22 22 22 23 26 29 36 49 43 34 39 38 38 35 35 34 36 42 44 48 43 40 37 34 30 30 35 38 39 39 36
10 11 12 11 11 11 10 10 10 8 8 9 9 10 13 15 15 17 20 22 22 22 24 29 36 43 44 36 34 31 29 32 30 30 37 38 41 42 45 40 38 35 36 46 40 39 38 38 36
11 11 13 12 11 12 12 13 9 10 10 10 10 10 12 14 14 16 18 19 20 22 23 27 33 41 42 33 31 28 26 30 28 30 32 36 40 42 45 39 40 39 42 39 38 38 38 38 36
10 11 10 14 11 11 12 12 10 11 11 11 10 10 11 12 15 16 20 22 21 22 24 28 36 41 37 34 30 32 35 32 27 30 29 31 36 38 42 40 40 45 41 44 42 41 44 42 40
11 10 11 11 12 10 10 10 11 11 12 12 11 11 11 12 15 20 21 21 20 29 29 31 36 38 36 33 33 28 27 25 26 26 25 32 34 37 40 39 42 41 40 41 42 50 45 46 45
11 12 12 11 13 15 13 13 12 13 13 14 13 13 13 14 21 21 24 24 26 33 33 34 36 39 31 28 28 25 27 25 26 24 31 35 34 37 41 36 37 40 38 44 50 48 52 50 48
14 15 15 15 15 17 15 14 14 14 16 15 16 17 19 20 20 23 27 31 32 32 30 29 28 29 26 23 27 31 33 29 29 31 33 32 34 35 34 43 38 41 39 47 50 52 48 48 48
17 19 22 20 16 16 17 16 16 15 15 15 16 17 17 18 20 22 26 31 34 34 31 28 29 30 34 34 26 28 28 29 27 28 29 29 35 36 39 42 39 44 45 43 49 49 52 50 48
20 21 23 22 20 18 17 19 18 16 18 18 19 20 20 19 20 23 26 31 37 38 35 32 31 30 32 37 32 38 33 34 33 35 33 36 41 37 32 33 36 45 46 51 51 41 52 55 52
23 25 25 24 24 19 18 16 21 16 19 20 22 23 24 24 25 26 28 31 34 38 39 36 31 32 34 37 38 38 40 37 36 38 42 39 33 31 29 32 39 47 46 49 55 61 66 60 65
23 25 24 25 24 33 23 22 21 20 22 23 24 27 28 28 27 27 28 27 31 37 38 36 32 29 31 36 40 43 46 44 38 37 37 33 34 32 35 33 42 48 51 54 63 65 71 73 72
22 25 39 46 42 40 24 22 32 26 24 25 28 29 30 29 29 28 28 28 30 34 35 35 32 33 32 35 37 39 39 41 41 40 38 42 38 36 39 43 49 47 57 61 65 68 71 76 82
27 29 50 46 43 32 25 22 27 24 23 25 25 26 27 28 30 29 29 31 31 33 35 38 37 36 32 36 38 40 42 39 40 41 44 43 41 41 43 47 50 58 66 76 73 72 73 71 68
29 36 29 46 58 54 22 24 27 25 27 26 26 27 29 29 30 28 28 29 31 33 34 38 38 35 35 38 42 44 42 44 44 47 44 42 44 39 45 52 63 62 65 63 65 65 67 72 67
28 27 43 41 66 41 19 20 22 33 29 27 25 26 28 28 29 28 28 31 31 32 34 37 35 34 38 41 42 40 44 43 44 43 45 45 46 45 59 62 66 57 60 65 66 65 64 70 79
29 32 32 27 40 48 42 25 23 24 25 27 25 28 30 30 31 28 29 32 32 34 36 33 33 36 38 37 39 41 40 42 42 41 42 44 46 44 44 49 55 63 67 69 72 70 66 65 60
27 30 30 47 37 43 55 40 22 22 25 27 27 28 30 31 29 30 32 37 39 37 34 33 36 35 35 35 35 37 39 40 41 42 50 56 51 53 55 68 84 81 70 61 63 63 60 61 59
Wind_Speed
13 13 9 6 9 10 10 7 13 9 10 8 5 11 16 15 15 7 14 11 13 12 15 15 12 12 12 8 8 7 9 12 12 12 12 12 12 11 11 9 6 8 8 9 8 9 9 8 7
13 6 6 10 11 8 10 9 13 14 13 10 8 5 9 15 15 14 13 11 12 11 12 15 10 11 11 11 11 10 9 8 8 9 9 10 10 10 9 7 6 7 7 7 7 8 8 6 6
13 10 11 7 14 6 11 8 15 12 7 4 8 12 8 10 11 13 16 12 12 11 15 12 9 9 9 10 9 10 10 10 10 9 8 8 7 6 7 6 5 5 5 5 6 8 4 3 3
8 6 7 11 15 12 12 13 13 10 6 0 8 13 8 12 6 17 13 12 13 11 16 11 9 10 9 10 10 9 9 9 9 10 8 9 8 8 8 7 7 7 7 8 7 6 5 4 4
9 11 9 8 13 12 13 11 10 13 10 8 5 10 12 10 14 15 13 12 12 12 13 12 9 9 8 9 9 10 10 9 9 8 9 8 7 8 8 7 7 8 8 8 7 7 7 6 6
10 11 7 10 12 8 8 7 2 6 7 7 7 14 12 12 14 13 11 12 11 12 11 10 9 7 7 8 8 8 8 10 9 9 8 8 9 9 9 9 9 9 8 8 8 7 7 7 6
16 10 11 14 12 11 9 3 4 6 7 6 5 11 10 13 13 11 11 10 10 10 9 11 11 10 7 7 7 7 8 8 7 7 7 7 7 7 7 8 8 7 7 7 6 5 4 3 2
8 4 11 11 10 13 6 2 6 3 13 9 7 9 13 16 13 12 11 11 9 8 8 8 8 8 8 11 9 8 7 6 6 6 5 4 6 7 6 6 7 5 5 4 3 2 1 2 3
7 6 8 6 8 8 7 8 1 4 8 2 2 10 19 18 14 12 10 11 10 8 7 5 7 5 4 4 9 9 8 7 7 8 7 8 4 2 9 10 5 3 2 1 1 2 4 8 10
10 3 12 7 5 9 8 4 6 8 8 9 8 7 19 16 14 13 12 11 10 9 9 9 5 5 3 2 3 4 4 2 3 4 4 3 4 5 5 4 9 8 7 9 10 9 10 11 8
4 10 9 5 1 8 8 4 3 4 8 9 12 12 17 15 14 12 12 12 11 12 9 8 6 4 1 5 4 0 1 2 2 1 5 5 4 4 4 2 4 3 10 5 9 7 7 8 6
5 8 5 7 4 0 5 8 4 5 12 6 6 13 14 15 13 12 11 12 11 11 9 8 6 5 3 3 2 3 2 3 2 7 3 5 4 5 5 4 6 6 5 6 6 5 6 7 8
10 8 10 8 6 1 3 5 2 6 9 6 5 10 12 13 13 12 10 9 9 8 9 9 8 6 4 3 2 2 3 1 5 2 4 3 5 5 6 6 6 6 6 6 7 7 8 8 8
7 9 8 7 5 4 7 6 8 7 6 8 9 10 12 11 12 10 9 9 9 10 8 8 8 7 5 4 1 2 2 0 3 1 4 2 3 4 6 6 7 7 7 7 7 9 9 9 9
8 9 10 8 8 5 8 10 11 7 4 7 10 10 10 12 9 9 9 7 7 7 7 6 6 6 6 5 3 3 1 2 1 0 2 0 3 4 6 7 7 8 8 8 8 9 9 9 9
11 10 12 8 7 4 10 12 11 7 5 9 10 8 9 11 11 10 9 9 7 5 4 4 5 6 8 4 2 2 1 3 3 3 2 2 3 5 6 7 8 8 8 9 9 9 10 10 10
9 10 1 9 2 2 8 5 13 2 7 10 13 13 10 10 11 9 8 5 4 4 5 4 6 6 6 5 4 1 2 5 4 3 4 3 5 6 7 7 9 9 9 9 9 10 10 10 11
6 3 5 6 8 5 9 10 6 4 6 7 8 8 7 9 13 8 2 4 4 6 3 1 4 4 1 2 2 4 4 5 3 4 4 6 7 7 8 8 10 9 10 10 9 11 11 11 11
5 5 4 4 5 7 4 6 5 4 3 5 4 4 4 6 13 12 7 6 8 5 5 6 6 6 4 3 4 4 3 4 5 5 6 6 7 9 10 9 10 10 10 10 11 11 12 11 11
3 5 2 1 3 6 3 5 5 8 7 8 9 10 10 12 12 11 12 12 11 9 8 6 6 5 4 2 5 3 5 5 6 5 7 8 6 8 9 8 10 12 10 11 11 11 10 11 10
3 7 6 10 7 10 9 8 11 9 12 11 13 14 13 11 11 10 11 11 10 10 8 8 7 7 7 7 3 5 5 5 5 6 9 9 11 11 10 10 10 11 11 10 10 11 13 11 11
9 4 8 10 9 8 12 4 9 12 11 10 10 10 9 9 9 9 10 10 10 9 7 7 6 6 6 7 6 5 5 7 8 8 9 11 14 14 12 12 12 11 10 11 10 10 11 12 12
6 8 8 8 10 11 11 10 12 11 9 9 9 9 8 8 8 9 9 9 9 7 6 5 5 5 6 5 5 6 9 9 9 9 10 12 12 13 14 13 12 11 10 10 10 8 10 9 8
7 8 6 7 6 6 3 8 14 8 8 6 9 8 7 8 7 6 6 4 7 5 5 5 6 7 5 7 8 8 9 9 9 10 10 9 10 11 13 14 11 11 9 7 6 6 6 5 5
8 7 4 4 4 2 6 7 11 8 7 7 7 7 7 7 6 5 5 6 5 5 6 7 9 10 9 8 8 9 10 11 11 12 10 14 11 11 12 13 10 8 6 4 4 4 4 2 2
5 7 4 5 3 5 7 6 9 10 9 8 6 5 5 5 4 4 3 5 7 7 7 7 10 11 12 11 11 10 12 9 10 12 12 11 11 11 13 10 8 7 5 3 3 3 3 4 3
4 4 3 2 1 3 5 7 10 11 9 5 4 3 5 4 4 4 6 7 8 10 10 8 11 14 14 14 11 12 11 12 12 14 13 11 13 11 11 8 6 3 7 7 7 5 8 5 7
7 3 4 1 3 4 1 7 4 12 9 8 4 8 7 4 4 7 8 10 9 11 10 10 11 13 12 10 9 10 12 13 13 12 14 14 12 12 8 7 4 5 5 7 10 9 8 9 6
2 1 4 5 4 5 5 4 9 5 3 5 8 9 10 7 8 9 10 10 10 9 10 12 14 13 12 12 12 12 12 12 11 11 11 11 12 11 10 8 7 7 7 8 9 9 9 10 11
5 4 6 3 4 3 4 8 8 6 3 3 9 8 4 8 10 10 9 8 8 10 12 12 10 10 11 12 13 13 11 10 11 12 12 10 11 11 11 9 9 11 12 9 8 9 8 10 12
Wind_Direction
257 232 248 260 241 244 96 89 105 117 107 61 74 13 51 29 16 49 91 103 124 121 120 94 62 63 70 68 67 64 63 63 65 69 79 98 100 97 90 83 72 55 35 31 27 29 45 42 44
257 236 238 262 253 196 110 152 146 80 93 105 96 134 50 65 76 108 123 103 108 108 100 87 76 73 75 79 81 78 84 86 82 83 85 92 98 100 102 89 56 41 29 21 22 38 51 39 24
257 247 258 231 237 161 117 166 91 105 118 121 100 46 23 84 109 84 99 112 110 104 93 92 82 82 82 79 79 74 74 72 71 78 83 94 96 107 86 75 69 64 51 44 33 42 56 43 26
213 210 245 245 77 69 120 106 125 134 132 60 110 93 86 58 91 105 110 114 112 118 103 101 100 85 79 79 81 86 82 77 73 73 79 75 72 64 59 50 47 47 49 40 44 43 29 3 2
233 245 217 120 99 95 104 114 165 170 151 127 296 92 95 78 94 113 113 115 125 108 113 110 85 85 88 86 79 74 75 73 69 71 75 77 79 76 66 58 55 47 43 46 40 40 39 31 25
232 248 153 136 118 108 105 117 152 139 106 88 97 107 80 113 124 116 129 130 121 117 113 126 120 109 102 92 87 83 78 72 72 75 76 79 74 74 77 75 73 69 67 63 57 56 55 58 48
253 233 124 114 136 140 114 162 164 120 113 87 123 119 114 136 122 142 137 122 128 127 134 140 137 126 124 119 108 90 79 82 84 87 91 91 91 87 86 87 81 77 71 66 68 72 74 68 44
297 47 117 136 167 112 117 166 71 243 64 67 343 137 157 131 151 144 138 137 142 148 150 133 151 145 156 145 115 107 107 112 114 119 122 149 155 144 143 127 84 72 72 80 95 114 187 240 238
263 183 136 135 146 136 155 140 81 25 122 256 144 58 135 141 152 147 156 159 155 162 142 145 128 105 92 79 123 156 153 173 166 166 174 229 234 180 166 84 98 112 120 123 179 258 257 249 237
258 164 81 28 60 144 162 165 127 186 144 144 138 117 126 152 162 167 173 171 175 173 169 142 140 102 100 100 111 124 135 118 38 29 11 323 18 27 322 157 174 188 198 211 210 210 234 244 271
272 84 116 142 40 157 140 134 151 161 184 141 149 148 148 165 178 187 186 177 189 175 176 149 144 135 288 66 11 246 275 67 104 125 8 1 345 28 306 344 199 201 201 259 208 209 241 349 311
96 95 136 116 148 344 167 119 172 231 85 91 129 143 156 174 187 194 199 176 180 163 167 159 149 166 190 306 333 13 246 46 301 45 354 355 334 1 356 332 334 304 325 325 286 304 306 280 280
126 121 110 132 160 139 63 162 30 175 133 151 140 155 168 176 192 195 199 192 161 164 166 165 169 195 182 197 331 335 307 197 30 332 48 5 342 1 336 342 315 319 311 301 306 307 302 294 276
123 138 133 159 162 150 243 149 220 119 185 174 173 195 179 183 187 182 189 189 185 181 174 181 185 193 191 241 171 300 202 243 215 99 63 44 347 351 321 325 315 307 311 314 317 315 310 302 298
155 162 161 189 180 150 247 198 225 125 166 191 199 213 207 189 188 173 177 200 190 194 207 196 194 181 204 209 211 286 356 310 274 271 163 275 290 329 314 306 309 309 317 306 285 288 284 278 278
198 226 191 142 178 143 247 247 133 179 207 222 201 199 216 195 193 167 173 188 208 245 247 204 198 191 200 223 200 282 277 272 261 265 299 317 309 303 297 296 301 307 306 295 295 292 287 284 279
201 230 159 147 213 284 246 327 134 120 272 262 259 208 198 222 189 178 160 203 240 276 309 249 189 208 200 172 272 183 264 245 264 321 286 336 313 305 297 295 298 304 294 288 289 288 284 279 274
120 216 173 282 120 243 251 244 37 351 280 268 223 230 220 210 188 135 149 46 7 42 318 238 167 184 50 316 234 252 240 264 267 271 310 345 319 326 310 298 291 293 289 288 290 297 294 291 288
9 297 280 109 67 298 192 266 65 35 75 118 135 167 160 156 72 73 69 81 80 79 92 66 113 42 300 304 323 304 295 326 288 308 9 325 346 324 313 306 307 301 293 298 298 290 283 279 281
288 298 74 125 122 298 204 163 95 80 71 68 97 103 106 105 94 100 85 74 65 62 62 76 80 50 13 17 349 340 321 309 326 289 348 300 334 304 303 321 302 304 301 295 289 286 284 278 275
97 333 15 316 311 260 265 174 153 108 98 94 77 68 73 99 112 94 78 70 67 60 59 67 68 58 45 356 10 345 302 268 303 329 305 311 307 307 305 295 308 301 296 288 293 295 290 287 282
296 40 307 284 268 256 208 167 151 142 115 102 97 86 82 92 84 73 79 79 81 76 73 76 55 48 44 30 8 346 319 309 329 292 313 330 310 294 308 310 308 305 299 292 290 290 313 308 293
22 321 294 281 265 276 196 258 116 156 133 112 85 67 64 71 61 69 76 83 73 66 60 40 23 29 30 359 332 319 318 324 325 312 302 322 307 321 315 318 314 310 299 305 308 342 352 342 337
298 263 237 256 250 241 86 282 146 139 103 127 90 67 58 61 76 82 81 93 102 78 39 10 345 343 344 338 334 333 321 306 312 317 315 317 324 315 318 319 316 299 292 333 9 9 17 10 18
303 291 260 209 192 278 91 268 66 96 94 66 84 85 65 62 73 72 59 36 39 4 355 340 343 335 338 331 317 314 315 318 314 323 326 325 318 318 315 322 306 305 22 13 2 349 11 343 322
358 322 2 300 339 333 144 264 123 121 116 123 112 98 60 70 78 51 15 337 346 343 333 330 325 319 332 329 327 325 326 327 328 334 329 318 315 316 314 310 334 8 39 138 225 4 283 260 270
21 33 1 228 119 247 274 130 154 156 145 142 122 341 23 4 339 332 350 350 346 340 337 339 330 326 323 325 336 332 328 327 328 332 325 323 321 320 321 352 352 328 33 15 4 336 299 293 279
348 39 248 127 293 288 287 304 3 170 199 168 328 5 331 323 306 339 331 335 338 335 331 323 315 321 338 326 324 331 329 332 333 326 329 327 322 333 348 333 297 26 5 343 327 310 300 319 303
173 187 319 312 336 298 302 312 32 41 46 4 328 342 331 337 326 328 337 335 325 321 317 330 333 334 327 338 337 330 327 334 326 324 324 321 322 325 325 334 10 337 338 341 327 311 305 302 294
326 338 316 302 307 248 313 290 66 46 34 286 301 326 333 304 324 321 326 349 332 322 327 334 328 330 336 330 332 323 319 316 318 330 347 337 336 329 329 8 357 338 323 315 311 302 303 298 300